This demonstration page uses our WeatherBlox Daily Observations layout. Learn more.

Left ArrowRight Arrow

Hourly Observations for February 1, 2017

Temp ( °F °C ) Dew Point ( °F °C ) Humidity (%) Winds ( mph kmh ) Pressure ( in mb ) Visibility ( mi km ) Precip ( " mm )
12:51 am 00:51 Clear 39 3.9 23 -5 53 53 ESE 5 7 30.09 1019 10 16 N/A
1:51 am 01:51 Clear 36 2.2 23 -5 59 59 SSE 3 6 30.09 1019 10 16 N/A
2:51 am 02:51 Clear 35 1.7 23 -5 61 61 ESE 7 11 30.08 1019 10 16 N/A
3:51 am 03:51 Clear 33 0.6 23 -5 66 66 ESE 3 6 30.09 1019 10 16 N/A
4:51 am 04:51 Clear 33 0.6 23 -5 66 66 SE 5 7 30.09 1019 10 16 N/A
5:51 am 05:51 Clear 31 -0.6 22 -5.6 69 69 N N/A 30.12 1020 10 16 N/A
6:51 am 06:51 Clear 31 -0.6 21 -6.1 67 67 SSE 7 11 30.14 1021 10 16 N/A
7:51 am 07:51 Sunny 35 1.7 23 -5 61 61 SE 3 6 30.15 1021 10 16 N/A
8:51 am 08:51 Sunny 39 3.9 24 -4.4 55 55 SE 6 9 30.15 1021 10 16 N/A
9:51 am 09:51 Sunny 47 8.3 26 -3.3 44 44 SSE 5 7 30.15 1021 10 16 N/A
10:51 am 10:51 Sunny 53 11.7 25 -3.9 34 34 N N/A 30.15 1021 10 16 N/A
11:51 am 11:51 Sunny 58 14.4 23 -5 26 26 NW 5 7 30.13 1020 10 16 N/A
12:51 pm 12:51 Sunny 61 16.1 24 -4.4 24 24 W 8 13 30.10 1019 10 16 N/A
1:51 pm 13:51 Sunny 65 18.3 22 -5.6 19 19 WNW 8 13 30.06 1018 10 16 N/A
2:51 pm 14:51 Sunny 67 19.4 23 -5 19 19 W 8 13 30.05 1018 10 16 N/A
3:51 pm 15:51 Sunny 68 20 22 -5.6 17 17 W 8 13 30.05 1018 10 16 N/A
4:51 pm 16:51 Sunny 66 18.9 21 -6.1 18 18 WSW 8 13 30.06 1018 10 16 N/A
5:51 pm 17:51 Sunny 60 15.6 22 -5.6 23 23 WSW 5 7 30.07 1018 10 16 N/A
6:51 pm 18:51 Clear 52 11.1 25 -3.9 35 35 NNE 5 7 30.09 1019 10 16 N/A
7:51 pm 19:51 Clear 48 8.9 25 -3.9 41 41 NNE 3 6 30.10 1019 10 16 N/A
8:51 pm 20:51 Clear with Light Rain 46 7.8 25 -3.9 44 44 E 7 11 30.11 1020 10 16 N/A
9:51 pm 21:51 Clear 43 6.1 24 -4.4 47 47 N N/A 30.11 1020 10 16 N/A
10:51 pm 22:51 Clear 42 5.6 25 -3.9 51 51 N N/A 30.11 1020 10 16 N/A
11:51 pm 23:51 Clear 42 5.6 23 -5 47 47 N N/A 30.09 1019 10 16 N/A

Powered by AerisWeather